This is the latest recevied weather packets stored in our database for station/object W0SS-13. If no packets are shown the sender has not sent any weather packets the latest 1 day(s).
| Time | Temp. | Humidity | Pressure | Rain* | Wind** | Luminosity | Snow |
|---|---|---|---|---|---|---|---|
| 1778100479 | 15° C | 39% | 1019.2 hPa | 0 mm | - | 642 W/m² | - |
| 1778098662 | 14.44° C | 42% | 1019.4 hPa | 0 mm | - | 711 W/m² | - |
| 1778098056 | 14.44° C | 41% | 1019.5 hPa | 0 mm | - | 727 W/m² | - |
| 1778096539 | 13.89° C | 38% | 1019.5 hPa | 0 mm | - | 766 W/m² | - |
| 1778096237 | 13.89° C | 35% | 1019.7 hPa | 0 mm | - | 772 W/m² | - |
| 1778095018 | 14.44° C | 37% | 1019.6 hPa | 0 mm | - | 794 W/m² | - |
| 1778093805 | 13.33° C | 42% | 1019.8 hPa | 0 mm | - | 812 W/m² | - |
| 1778093199 | 13.33° C | 42% | 1020.2 hPa | 0 mm | - | 819 W/m² | - |
| 1778092896 | 13.33° C | 39% | 1020.1 hPa | 0 mm | - | 821 W/m² | - |
| 1778092288 | 13.33° C | 39% | 1020 hPa | 0 mm | - | 826 W/m² | - |
| 1778091986 | 13.33° C | 46% | 1020.3 hPa | 0 mm | - | 828 W/m² | - |
| 1778089863 | 12.78° C | 41% | 1020.4 hPa | 0 mm | - | 293 W/m² | - |
| 1778089258 | 12.78° C | 45% | 1020.4 hPa | 0 mm | - | 306 W/m² | - |
| 1778088350 | 12.78° C | 44% | 1020.4 hPa | 0 mm | - | 357 W/m² | - |
| 1778088046 | 12.78° C | 46% | 1020.5 hPa | 0 mm | - | 360 W/m² | - |
| 1778087138 | 13.33° C | 42% | 1020.5 hPa | 0 mm | - | 740 W/m² | - |
| 1778086224 | 12.78° C | 44% | 1020.3 hPa | 0 mm | - | 955 W/m² | - |
| 1778085921 | 12.78° C | 40% | 1020.2 hPa | 0 mm | - | 651 W/m² | - |
| 1778084707 | 12.22° C | 45% | 1020.2 hPa | 0 mm | - | 310 W/m² | - |
| 1778082885 | 12.22° C | 46% | 1020 hPa | 0 mm | - | 307 W/m² | - |
| 1778081777 | 12.22° C | 47% | 1019.7 hPa | 0 mm | - | 432 W/m² | - |
| 1778080264 | 12.22° C | 56% | 1019.6 hPa | 0 mm | - | 552 W/m² | - |
| 1778077237 | 11.11° C | 58% | 1019.8 hPa | 0 mm | - | 421 W/m² | - |
| 1778076027 | 11.11° C | 64% | 1019.6 hPa | 0 mm | - | 327 W/m² | - |
| 1778073601 | 10° C | 67% | 1019.1 hPa | 0 mm | - | 151 W/m² | - |
* Rain latest hour (hover to see other rain measurements)
** Current wind speed in m/s (hover to see current wind gust speed)